Location: Latina
(41.4670°N, 12.8670°E)
Time: 18:09:38
(UTC+02:00)

ISS - Pass Details

Date: 11 May 2021
Orbit: 417 x 422 km, 51.6° (Epoch: 18 June)

Event Time Altitude Azimuth Distance (km) Brightness Sun altitude
Exits shadow 03:35:47 - 309° (NW) 2,170 -0.1 -21.1°
Reaches altitude 10° 03:37:55 10° 328° (NNW) 1,509 -0.7 -20.9°
Maximum altitude 03:40:06 16° 9° (N) 1,197 -0.7 -20.6°
Drops below altitude 10° 03:42:17 10° 49° (NE) 1,509 0.2 -20.4°
Sets 03:45:00 0° 72° (ENE) 2,374 1.0 -20.0°
